星链-5758 (STARLINK-5758 )

导读 | 星芒AI

STARLINK-5758 是 SpaceX Starlink 卫星互联网项目中的一颗低轨卫星,属于第5758号星链卫星。该卫星由 SpaceX 研制并发射,用于提供全球高速互联网服务。它运行在约550公里高的近地轨道,采用先进的通信技术,支持宽带数据传输。作为星链计划的一部分,STARLINK-5758 有助于扩大网络覆盖范围,提升连接速度与稳定性,尤其在偏远地区具有重要意义。该卫星系统由数千颗卫星组成,旨在构建一个高效、低延迟的全球通信网络。

基本信息
目录编号:
56037
目录名称:
STARLINK-5758
国际标识:
2023-042BD
轨道中心:
EARTH
卫星名称:
星链-5758
卫星全名:
星链-5758 (STARLINK-5758 )
卫星状态:
在轨 (已飞行1003 天)
发射日期:
2023-03-24 UTC
国别 :
美国 (US)
星等 :
--
轨道信息
数据来源 国际轨道数据 AOE轨道数据
星历时间 2025-12-21T08:04:23+0800
16小时前
查看轨道信息
2025-12-15T07:00:00+0800
6天前
查看轨道信息
半长轴 6937.224km 6937.221km
偏心率 0.0001297 0.0001474
轨道倾角 43.003° 43.002°
近地点辐角 268.101° 259.829°
升交点赤经 97.617° 130.465°
平近点角 91.969° 126.069°
近地点 558.187km 558.063km
远地点 559.987km 560.109km
周期 95.838分钟 95.838分钟
每日圈数 15.025338 15.025348
详细信息
固有亮度:
5
最大亮度:
2.5
卫星平台:
Starlink v1.5
覆盖范围:
全球
运营商:
太空探索技术公司
运营商所在国:
美国
制造商(研发单位):
太空探索技术公司
制造商所在国:
美国
使用方式:
暂无
卫星简介
星链(Starlink)计划是由太空探索技术公司(SpaceX)提出的一个巨型低轨卫星互联网星座项目,计划在2019年至2024年间在太空搭建由约1.2万颗卫星组成的“星链”网络,其中1584颗将部署在地球上空550千米处的近地轨道,并从2020年开始工作。该卫星仍在工作。
2D轨道图
3D轨道图
轨道高度分析图
轨道倾角分析图
轨道综合分析图
查看轨道综合分析图